Weather History for CYLW - October, 2012

Change the Weather History Date:

Tuesday, October 23, 2012

  Actual Average Record
Temperature  
Mean Temperature 37 °F -  
Max Temperature 41 °F 49 °F 64 °F (2007)
Min Temperature 33 °F 29 °F 24 °F (2002)
Degree Days  
Heating Degree Days 28    
Moisture  
Dew Point 34 °F    
Average Humidity 90    
Maximum Humidity 100    
Minimum Humidity 75    
Precipitation  
Precipitation 0.12 in - - ()
Sea Level Pressure  
Sea Level Pressure 29.84 in    
Wind  
Wind Speed 6 mph ()    
Max Wind Speed 14 mph    
Max Gust Speed 21 mph    
Visibility 8.2 miles    
Events Rain    
Averages and records for this station are not official NWS values.
T = Trace of Precipitation, MM = Missing Value Source: Averaged Metar Reports

Daily Weather History Graph

Daily Weather History Graph

Search for Another Location

Airport or City:

Trip Planner

Search our weather history database for the weather conditions in past years. The results will help you decide how hot, cold, wet, or windy it might be!

Date:

Astronomy

Oct. 23, 2012 Rise Set
Actual Time 7:33 AM PDT 5:49 PM PDT
Civil Twilight 7:00 AM PDT 6:22 PM PDT
Nautical Twilight 6:22 AM PDT 7:00 PM PDT
Astronomical Twilight 5:45 AM PDT 7:37 PM PDT
Moon 3:05 PM PDT (10/23) 12:57 AM PDT (10/23)
Length of Visible Light 11h 22m
Length of Day
10h 16m
Waxing Gibbous, 67% of the Moon is Illuminated
Oct 23
Waxing Gibbous
Oct 29
Full
Nov 6
Last Quarter
Nov 13
New
Nov 20
First Quarter

Hourly Weather History & Observations

Time (PDT) Temp. Windchill Dew Point Humidity Pressure Visibility Wind Dir Wind Speed Gust Speed Precip Events Conditions
12:00 AM 39.2 °F 32.5 °F 33.8 °F 81% 29.67 in 9.0 mi North 10.4 mph 18.4 mph N/A Rain Light Rain
12:43 AM 37.4 °F 29.3 °F 33.8 °F 87% 29.68 in 9.0 mi North 12.7 mph 20.7 mph N/A Rain Light Rain
1:00 AM 37.4 °F 29.3 °F 35.6 °F 93% 29.68 in 9.0 mi North 12.7 mph - N/A Rain Light Rain
2:00 AM 35.6 °F 26.6 °F 33.8 °F 93% 29.69 in 9.0 mi North 13.8 mph 20.7 mph N/A Rain Light Rain
2:03 AM 35.6 °F 27.1 °F 33.8 °F 93% 29.69 in 9.0 mi North 12.7 mph - N/A Rain Light Rain
2:59 AM 35.6 °F 26.6 °F 33.8 °F 93% 29.70 in 9.0 mi North 13.8 mph - N/A Rain Light Rain
3:00 AM 35.6 °F 27.1 °F 33.8 °F 93% 29.70 in 9.0 mi North 12.7 mph 18.4 mph N/A Rain Light Rain
3:31 AM 35.6 °F 28.0 °F 33.8 °F 93% 29.71 in 9.0 mi North 10.4 mph - N/A Rain Light Rain
4:00 AM 35.6 °F 28.0 °F 33.8 °F 93% 29.72 in 9.0 mi North 10.4 mph - N/A Rain Light Rain
4:03 AM 35.6 °F 28.6 °F 33.8 °F 93% 29.72 in 9.0 mi North 9.2 mph - N/A Rain Light Rain
4:23 AM 35.6 °F 30.7 °F 33.8 °F 93% 29.73 in 9.0 mi NNE 5.8 mph - N/A Rain Light Rain
4:36 AM 35.6 °F 32.8 °F 33.8 °F 93% 29.73 in 9.0 mi East 3.5 mph - N/A Rain Light Rain
4:41 AM 35.6 °F 32.8 °F 33.8 °F 93% 29.73 in 9.0 mi East 3.5 mph - N/A Rain Light Rain
5:00 AM 34 °F - 33 °F 95% 29.74 in 9 mi NE 2.3 mph - - Rain Rain
5:00 AM 33.8 °F - 33.8 °F 100% 29.74 in 9.0 mi Variable 2.3 mph - N/A Rain Rain
5:01 AM 33.8 °F - 33.8 °F 100% 29.74 in 9.0 mi Variable 2.3 mph - N/A Rain Rain
5:06 AM 33.8 °F 30.8 °F 33.8 °F 100% 29.74 in 9.0 mi NNE 3.5 mph - N/A   Overcast
5:39 AM 33.8 °F 30.8 °F 32.0 °F 93% 29.75 in 6.0 mi NE 3.5 mph - N/A   Overcast
5:44 AM 33.8 °F - 32.0 °F 93% 29.75 in 6.0 mi Variable 2.3 mph - N/A Rain Light Rain
6:00 AM 33.8 °F - 32.0 °F 93% 29.77 in 6.0 mi Calm Calm - N/A Rain Light Rain
6:03 AM 33.8 °F - 33.8 °F 100% 29.77 in 5.0 mi Calm Calm - N/A Rain Light Rain
6:12 AM 33.8 °F - 33.8 °F 100% 29.77 in 6.0 mi Calm Calm - N/A Rain Light Rain
7:00 AM 33.8 °F 28.6 °F 33.8 °F 100% 29.78 in 9.0 mi South 5.8 mph - N/A Rain Light Rain
7:26 AM 33.8 °F 29.6 °F 32.0 °F 93% 29.80 in 7.0 mi South 4.6 mph - N/A Rain Light Rain
7:31 AM 33.8 °F 29.6 °F 32.0 °F 93% 29.80 in 6.0 mi SSE 4.6 mph - N/A   Overcast
7:33 AM 33.8 °F 29.6 °F 32.0 °F 93% 29.80 in 5.0 mi SSE 4.6 mph - N/A   Overcast
7:40 AM 33.8 °F 29.6 °F 32.0 °F 93% 29.81 in 5.0 mi South 4.6 mph - N/A   Overcast
7:49 AM 33.8 °F 29.6 °F 32.0 °F 93% 29.81 in 5.0 mi South 4.6 mph - N/A   Overcast
7:57 AM 33.8 °F 30.8 °F 32.0 °F 93% 29.81 in 5.0 mi South 3.5 mph - N/A   Overcast
8:00 AM 33.8 °F 30.8 °F 32.0 °F 93% 29.81 in 5.0 mi South 3.5 mph - N/A   Overcast
8:12 AM 33.8 °F 29.6 °F 32.0 °F 93% 29.82 in 5.0 mi South 4.6 mph - N/A Rain Light Rain
9:00 AM 33.8 °F 30.8 °F 33.8 °F 100% 29.83 in 5.0 mi SE 3.5 mph - N/A Rain Light Rain
9:04 AM 33.8 °F 30.8 °F 33.8 °F 100% 29.83 in 5.0 mi SE 3.5 mph - N/A Rain Light Rain
9:14 AM 33.8 °F - 33.8 °F 100% 29.84 in 6.0 mi SSE 2.3 mph - N/A Rain Light Rain
10:00 AM 35.6 °F - 33.8 °F 93% 29.85 in 9.0 mi Calm Calm - N/A Rain Light Rain
10:02 AM 35.6 °F - 33.8 °F 93% 29.85 in 9.0 mi Calm Calm - N/A Rain Light Rain
10:03 AM 35.6 °F - 33.8 °F 93% 29.85 in 9.0 mi Calm Calm - N/A   Overcast
10:06 AM 35.6 °F - 33.8 °F 93% 29.85 in 9.0 mi Calm Calm - N/A   Overcast
10:10 AM 35.6 °F - 33.8 °F 93% 29.85 in 9.0 mi Calm Calm - N/A Rain Light Rain
10:31 AM 35.6 °F - 33.8 °F 93% 29.85 in 9.0 mi Calm Calm - N/A Rain Light Rain
10:36 AM 35.6 °F - 33.8 °F 93% 29.86 in 9.0 mi Calm Calm - N/A   Overcast
11:00 AM 37 °F - 35 °F 87% 29.86 in 10 mi WSW 1.2 mph - -   Clear
11:00 AM 37.4 °F - 33.8 °F 87% 29.86 in 9.0 mi Calm Calm - N/A   Overcast
12:00 PM 39.2 °F - 32.0 °F 75% 29.87 in 9.0 mi Variable 2.3 mph - N/A   Overcast
1:00 PM 39.2 °F - 32.0 °F 75% 29.88 in 9.0 mi Variable 2.3 mph - N/A   Overcast
2:00 PM 39.2 °F 37.0 °F 33.8 °F 81% 29.89 in 9.0 mi Variable 3.5 mph - N/A   Overcast
2:32 PM 39.2 °F 37.0 °F 33.8 °F 81% 29.90 in 9.0 mi North 3.5 mph - N/A Rain Light Rain
3:00 PM 39.2 °F 37.0 °F 33.8 °F 81% 29.91 in 9.0 mi North 3.5 mph - N/A Rain Light Rain
3:15 PM 39.2 °F 37.0 °F 33.8 °F 81% 29.91 in 9.0 mi NNW 3.5 mph - N/A Rain Light Rain
4:00 PM 39.2 °F 35.9 °F 35.6 °F 87% 29.92 in 9.0 mi North 4.6 mph - N/A Rain Light Rain
4:05 PM 39.2 °F 35.9 °F 35.6 °F 87% 29.92 in 9.0 mi NNW 4.6 mph - N/A   Overcast
4:12 PM 39.2 °F 37.0 °F 35.6 °F 87% 29.92 in 9.0 mi NW 3.5 mph - N/A Rain Light Rain
5:00 PM 39 °F - 35 °F 81% 29.94 in 10 mi North 6.9 mph - - Rain Light Rain
5:00 PM 39.2 °F 35.0 °F 35.6 °F 87% 29.94 in 9.0 mi North 5.8 mph - N/A Rain Light Rain
5:03 PM 39.2 °F 34.2 °F 35.6 °F 87% 29.94 in 9.0 mi North 6.9 mph - N/A Rain Light Rain
5:08 PM 39.2 °F 34.2 °F 35.6 °F 87% 29.94 in 9.0 mi NNW 6.9 mph - N/A Rain Light Rain
5:11 PM 39.2 °F 34.2 °F 35.6 °F 87% 29.94 in 9.0 mi NNW 6.9 mph - N/A Rain Light Rain
5:13 PM 39.2 °F 34.2 °F 35.6 °F 87% 29.94 in 9.0 mi NNW 6.9 mph - N/A Rain Light Rain
5:19 PM 39.2 °F 34.2 °F 35.6 °F 87% 29.95 in 9.0 mi North 6.9 mph - N/A Rain Light Rain
6:00 PM 37.4 °F 32.8 °F 33.8 °F 87% 29.96 in 9.0 mi North 5.8 mph - N/A Rain Light Rain
6:27 PM 37.4 °F 32.1 °F 33.8 °F 87% 29.96 in 9.0 mi North 6.9 mph - N/A Rain Light Rain
6:52 PM 37.4 °F 30.8 °F 33.8 °F 87% 29.97 in 9.0 mi North 9.2 mph - N/A Rain Light Rain
7:00 PM 37.4 °F 30.8 °F 33.8 °F 87% 29.98 in 9.0 mi North 9.2 mph - N/A Rain Light Rain
7:25 PM 35.6 °F 28.0 °F 32.0 °F 87% 29.98 in 9.0 mi North 10.4 mph - N/A   Overcast
8:00 PM 35.6 °F 28.0 °F 32.0 °F 87% 29.99 in 9.0 mi North 10.4 mph - N/A   Overcast
9:00 PM 35.6 °F 29.2 °F 32.0 °F 87% 30.00 in 9.0 mi NNE 8.1 mph - N/A   Overcast
10:00 PM 35.6 °F 29.2 °F 32.0 °F 87% 30.01 in 9.0 mi North 8.1 mph - N/A   Overcast
11:00 PM 36 °F - 32 °F 80% 30.03 in 10 mi NNE 4.6 mph - -   Overcast
11:00 PM 35.6 °F 30.7 °F 32.0 °F 87% 30.03 in 9.0 mi North 5.8 mph - N/A   Overcast